Home   Weather   West Palm Beach   Past weeks
Flag for USA

Past Weather in West Palm Beach, Florida, USA — Yesterday and Last 2 Weeks

Now
84 °F

Scattered clouds.


Feels Like: 86 °F
Forecast: 83 / 76 °F
Wind: 15 mph from Northeast

Location: Palm Beach International Airport

Current Time: May 24, 2019 at 5:38:39 pm

Latest Report: May 24, 2019 at 4:53 pm


Visibility: 10 mi

Pressure: 30.09 "Hg

Humidity: 53%

Dew Point: 65 °F

Location of West Palm BeachLocation

Past Weather in West Palm Beach — Graph

°F

West Palm Beach Temperature Yesterday

Maximum temperature yesterday: 86 °F (at 12:53 pm)
Minimum temperature yesterday: 78 °F (at 5:53 am)
Average temperature yesterday: 82 °F

High & Low Weather Summary for the Past Weeks

 TemperatureHumidityPressure
High90 °F (May 14, 1:53 pm)97% (May 13, 6:53 am)30.15 "Hg (May 13, 6:53 am)
Low70 °F (May 18, 6:53 am)46% (May 16, 3:53 pm)29.87 "Hg (May 12, 5:53 pm)
Average80 °F70%30.00 "Hg
* Reported May 9 3:35 pm — May 24 3:53 pm, West Palm Beach. Weather by CustomWeather, © 2019

Note: Actual official high and low records may vary slightly from our data, if they occured in-between our weather recording intervals... More about our weather records

Advertising

West Palm Beach Weather History for the Previous 24 Hours

Scroll right to see more
 ConditionsComfort  
Time TempWeatherWind HumidityBarometerVisibility
3:53 pm
Fri, May 24
83 °FScattered clouds.18 mph53%30.09 "Hg10 mi
2:53 pm84 °FScattered clouds.16 mph51%30.10 "Hg10 mi
1:53 pm82 °FScattered clouds.17 mph60%30.11 "Hg10 mi
12:53 pm83 °FScattered clouds.15 mph55%30.12 "Hg10 mi
11:53 am82 °FScattered clouds.15 mph56%30.12 "Hg10 mi
10:53 am81 °FScattered clouds.18 mph58%30.12 "Hg10 mi
9:53 am82 °FPartly sunny.14 mph56%30.11 "Hg10 mi
8:53 am79 °FBroken clouds.14 mph58%30.09 "Hg10 mi
7:53 am78 °FScattered clouds.14 mph60%30.09 "Hg10 mi
6:53 am76 °FScattered clouds.12 mph67%30.08 "Hg10 mi
5:53 am75 °FPassing clouds.12 mph64%30.08 "Hg10 mi
4:53 am76 °FPassing clouds.12 mph64%30.08 "Hg10 mi
3:53 am76 °FPassing clouds.17 mph62%30.09 "Hg10 mi
2:53 am76 °FPassing clouds.17 mph62%30.09 "Hg10 mi
1:53 am77 °FPassing clouds.17 mph60%30.11 "Hg10 mi
12:53 am77 °FPassing clouds.17 mph62%30.12 "Hg10 mi
11:53 pm
Thu, May 23
78 °FPassing clouds.17 mph60%30.13 "Hg10 mi
7:53 pm80 °FScattered clouds.16 mph56%30.11 "Hg10 mi
6:53 pm81 °FBroken clouds.18 mph58%30.10 "Hg10 mi
5:53 pm84 °FScattered clouds.16 mph55%30.10 "Hg10 mi
Weather by CustomWeather, © 2019

See weather overview